Location: Newark
(48.1500°N, 2.9667°W)
Time: 18:42:58
(UTC+00:00)

Transit 2A - Pass Details

Date: 29 January 2020
Orbit: 599 x 959 km, 66.7° (Epoch: 25 February)

Event Time Altitude Azimuth Distance (km) Brightness Sun altitude
Rises 02:31:27 0° 329° (NNW) 2,943 - -50.5°
Reaches altitude 10° 02:33:54 10° 341° (NNW) 2,072 - -50.1°
Maximum altitude 02:38:03 30° 43° (NE) 1,233 - -49.6°
Drops below altitude 10° 02:42:30 10° 105° (ESE) 2,245 - -49.0°
Sets 02:45:16 0° 116° (ESE) 3,233 - -48.6°
